Tracking 20945 objects as of 8-Jul-2020
HD Live streaming from Space Station
objects crossing your sky now

NOAA 16 DEB

Track NOAA 16 DEB now!
10-day predictions


NORAD ID: 41095
Int'l Code: 2000-055BE
Perigee: 758.5 km
Apogee: 830.2 km
Inclination: 99.0 °
Period: 100.6 minutes
Semi major axis: 7165 km
RCS: Unknown
Launch date: September 21, 2000
Source: United States (US)
Launch site: AIR FORCE WESTERN TEST RANGE (AFWTR)

Note: This is SATELLITE DEBRIS
aabbcc
Your satellite tracking list
Your tracking list is empty




NASA's NSSDC Master Catalog

Two Line Element Set (TLE):
1 41095U 00055BE  20189.62830781 +.00002030 +00000-0 +77343-3 0  9996
2 41095 098.9823 328.7390 0050052 278.3371 081.2138 14.31346474239717
Source of the keplerian elements: AFSPC